• In Hungary
  • List of Countries
  • For 7 days
  • Water Temperature
  • Satellite Maps
  • Weather Map
  • News
  • Weather Widgets
  • user-avatar
    Login

    Hourly Weather Novoallaberdino

    Today, 26 May, Saturday

    Time Temperature Precipitation Wind Pressure Humidity
    00:00 +6°C° 1 mm 8 mps 743 mmHg 80%
    01:00 +5°C° 1 mm 8 mps 743 mmHg 78%
    02:00 +5°C° 0.2 mm 8 mps 743 mmHg 77%
    03:00 +4°C° 0.2 mm 8 mps 743 mmHg 77%
    04:00 +5°C° 0 mm 8 mps 744 mmHg 76%
    05:00 +5°C° 0 mm 8 mps 744 mmHg 75%
    06:00 +6°C° 0 mm 9 mps 744 mmHg 73%
    07:00 +6°C° 0 mm 9 mps 745 mmHg 72%
    08:00 +7°C° 0 mm 9 mps 745 mmHg 65%
    09:00 +8°C° 0 mm 10 mps 746 mmHg 58%
    10:00 +9°C° 0 mm 10 mps 746 mmHg 50%
    11:00 +11°C° 0 mm 10 mps 747 mmHg 49%
    12:00 +11°C° 0 mm 10 mps 747 mmHg 47%
    13:00 +12°C° 0 mm 10 mps 747 mmHg 45%
    14:00 +11°C° 0 mm 9 mps 748 mmHg 45%
    15:00 +11°C° 0 mm 9 mps 748 mmHg 46%
    16:00 +11°C° 0 mm 9 mps 749 mmHg 46%
    17:00 +10°C° 0 mm 8 mps 749 mmHg 49%
    18:00 +10°C° 0 mm 8 mps 750 mmHg 51%
    19:00 +9°C° 0 mm 7 mps 750 mmHg 54%
    20:00 +8°C° 0 mm 7 mps 751 mmHg 54%
    21:00 +7°C° 0 mm 6 mps 752 mmHg 54%
    22:00 +5°C° 0 mm 6 mps 752 mmHg 54%
    23:00 +5°C° 0 mm 5 mps 753 mmHg 56%

    Tomorrow, 27 May, Sunday

    Time Temperature Precipitation Wind Pressure Humidity
    00:00 +5°C° 0 mm 5 mps 753 mmHg 58%
    01:00 +4°C° 0 mm 4 mps 754 mmHg 59%
    02:00 +3°C° 0 mm 4 mps 754 mmHg 62%
    03:00 +3°C° 0 mm 4 mps 754 mmHg 64%
    04:00 +2°C° 0 mm 3 mps 754 mmHg 66%
    05:00 +4°C° 0 mm 4 mps 754 mmHg 64%
    06:00 +5°C° 0 mm 4 mps 755 mmHg 61%
    07:00 +7°C° 0 mm 4 mps 755 mmHg 58%
    08:00 +8°C° 0 mm 5 mps 755 mmHg 54%
    09:00 +10°C° 0 mm 5 mps 755 mmHg 49%
    10:00 +13°C° 0 mm 5 mps 754 mmHg 45%
    11:00 +14°C° 0 mm 6 mps 754 mmHg 45%
    12:00 +15°C° 0 mm 6 mps 753 mmHg 45%
    13:00 +16°C° 0 mm 6 mps 753 mmHg 45%
    14:00 +16°C° 0 mm 6 mps 752 mmHg 47%
    15:00 +17°C° 0 mm 6 mps 752 mmHg 48%
    16:00 +17°C° 0 mm 6 mps 751 mmHg 50%
    17:00 +16°C° 0 mm 6 mps 751 mmHg 55%
    18:00 +15°C° 0 mm 5 mps 750 mmHg 59%
    19:00 +15°C° 0 mm 5 mps 750 mmHg 64%
    20:00 +13°C° 0 mm 5 mps 750 mmHg 67%
    21:00 +12°C° 0 mm 4 mps 749 mmHg 69%
    22:00 +11°C° 0 mm 4 mps 749 mmHg 72%
    23:00 +10°C° 0 mm 5 mps 748 mmHg 70%

    Day after tomorrow, 28 May, Monday

    Time Temperature Precipitation Wind Pressure Humidity
    00:00 +10°C° 0 mm 5 mps 747 mmHg 68%
    01:00 +10°C° 0 mm 6 mps 747 mmHg 66%
    02:00 +10°C° 0 mm 6 mps 746 mmHg 66%
    03:00 +10°C° 0 mm 6 mps 745 mmHg 66%
    04:00 +9°C° 0 mm 7 mps 744 mmHg 66%
    05:00 +10°C° 0.3 mm 7 mps 743 mmHg 69%
    06:00 +10°C° 0.3 mm 8 mps 743 mmHg 71%
    07:00 +10°C° 0.3 mm 9 mps 742 mmHg 74%
    08:00 +10°C° 1.5 mm 8 mps 742 mmHg 78%
    09:00 +9°C° 1.5 mm 8 mps 742 mmHg 83%
    10:00 +9°C° 1.5 mm 7 mps 742 mmHg 88%
    11:00 +10°C° 0.5 mm 7 mps 742 mmHg 81%
    12:00 +11°C° 0.5 mm 7 mps 742 mmHg 73%
    13:00 +12°C° 0.5 mm 7 mps 743 mmHg 66%
    14:00 +12°C° 0.5 mm 7 mps 743 mmHg 65%
    15:00 +12°C° 0.5 mm 7 mps 743 mmHg 64%
    16:00 +12°C° 0.5 mm 7 mps 744 mmHg 62%
    17:00 +11°C° 0.3 mm 7 mps 744 mmHg 66%
    18:00 +10°C° 0.3 mm 6 mps 744 mmHg 69%
    19:00 +9°C° 0.3 mm 6 mps 745 mmHg 73%
    20:00 +8°C° 0 mm 5 mps 745 mmHg 75%
    21:00 +6°C° 0 mm 5 mps 746 mmHg 78%
    22:00 +5°C° 0 mm 5 mps 746 mmHg 80%
    23:00 +5°C° 0 mm 5 mps 746 mmHg 80%

    29 May, Tuesday

    Time Temperature Precipitation Wind Pressure Humidity
    00:00 +4°C° 0 mm 4 mps 747 mmHg 81%
    01:00 +3°C° 0 mm 4 mps 747 mmHg 81%
    02:00 +3°C° 0 mm 4 mps 747 mmHg 82%
    03:00 +1°C° 0 mm 4 mps 747 mmHg 82%
    04:00 +1°C° 0 mm 4 mps 747 mmHg 83%
    05:00 +2°C° 0 mm 5 mps 748 mmHg 79%
    06:00 +3°C° 0 mm 5 mps 748 mmHg 75%
    07:00 +4°C° 0 mm 6 mps 748 mmHg 71%
    08:00 +5°C° 0 mm 6 mps 748 mmHg 65%
    09:00 +7°C° 0 mm 6 mps 747 mmHg 59%
    10:00 +8°C° 0 mm 7 mps 747 mmHg 53%
    11:00 +9°C° 0 mm 7 mps 747 mmHg 52%
    12:00 +9°C° 0 mm 7 mps 746 mmHg 51%
    13:00 +10°C° 0 mm 7 mps 746 mmHg 50%
    14:00 +10°C° 0.1 mm 7 mps 746 mmHg 54%
    15:00 +9°C° 0.1 mm 7 mps 745 mmHg 57%
    16:00 +9°C° 0.1 mm 7 mps 745 mmHg 61%
    17:00 +9°C° 0.2 mm 6 mps 745 mmHg 66%
    18:00 +8°C° 0.2 mm 5 mps 745 mmHg 72%
    19:00 +8°C° 0.2 mm 4 mps 744 mmHg 77%
    20:00 +7°C° 0.1 mm 4 mps 744 mmHg 82%
    21:00 +8°C° 0.1 mm 3 mps 744 mmHg 87%
    22:00 +7°C° 0.1 mm 3 mps 744 mmHg 91%
    23:00 +7°C° 0.1 mm 3 mps 744 mmHg 93%

    30 May, Wednesday

    Time Temperature Precipitation Wind Pressure Humidity
    00:00 +5°C° 0.1 mm 3 mps 743 mmHg 95%
    01:00 +5°C° 0.1 mm 3 mps 743 mmHg 96%
    02:00 +5°C° 0 mm 3 mps 743 mmHg 96%
    03:00 +5°C° 0 mm 3 mps 743 mmHg 96%
    04:00 +6°C° 0 mm 2 mps 743 mmHg 96%
    05:00 +7°C° 0.1 mm 3 mps 743 mmHg 92%
    06:00 +8°C° 0.1 mm 3 mps 743 mmHg 89%
    07:00 +10°C° 0.1 mm 4 mps 743 mmHg 85%
    08:00 +10°C° 0.2 mm 5 mps 743 mmHg 77%
    09:00 +12°C° 0.2 mm 5 mps 743 mmHg 69%
    10:00 +13°C° 0.2 mm 6 mps 743 mmHg 61%
    11:00 +13°C° 0 mm 6 mps 743 mmHg 60%
    12:00 +14°C° 0 mm 5 mps 743 mmHg 59%
    13:00 +14°C° 0 mm 5 mps 743 mmHg 57%
    14:00 +13°C° 0.3 mm 4 mps 743 mmHg 64%
    15:00 +12°C° 0.3 mm 3 mps 743 mmHg 72%
    16:00 +12°C° 0.3 mm 2 mps 743 mmHg 79%
    17:00 +10°C° 1 mm 2 mps 743 mmHg 84%
    18:00 +10°C° 1 mm 2 mps 743 mmHg 88%
    19:00 +10°C° 1 mm 1 mps 742 mmHg 93%
    20:00 +9°C° 0.8 mm 1 mps 742 mmHg 93%
    21:00 +9°C° 0.8 mm 1 mps 743 mmHg 94%
    22:00 +8°C° 0.8 mm 2 mps 743 mmHg 94%
    23:00 +7°C° 0 mm 2 mps 743 mmHg 94%

    31 May, Thursday

    Time Temperature Precipitation Wind Pressure Humidity
    00:00 +7°C° 0 mm 2 mps 743 mmHg 93%
    01:00 +6°C° 0 mm 2 mps 743 mmHg 92%
    02:00 +6°C° 0 mm 2 mps 743 mmHg 92%
    03:00 +5°C° 0 mm 2 mps 743 mmHg 92%
    04:00 +4°C° 0 mm 2 mps 744 mmHg 92%
    05:00 +6°C° 0 mm 2 mps 744 mmHg 87%
    06:00 +7°C° 0 mm 2 mps 744 mmHg 82%
    07:00 +9°C° 0 mm 2 mps 745 mmHg 78%
    08:00 +10°C° 0 mm 2 mps 745 mmHg 70%
    09:00 +13°C° 0 mm 2 mps 745 mmHg 62%
    10:00 +14°C° 0 mm 1 mps 745 mmHg 54%
    11:00 +15°C° 0 mm 2 mps 745 mmHg 53%
    12:00 +15°C° 0 mm 2 mps 744 mmHg 52%
    13:00 +16°C° 0 mm 2 mps 744 mmHg 51%
    14:00 +16°C° 0 mm 2 mps 743 mmHg 51%
    15:00 +16°C° 0 mm 2 mps 743 mmHg 51%
    16:00 +17°C° 0 mm 2 mps 743 mmHg 51%
    17:00 +16°C° 0.4 mm 2 mps 742 mmHg 60%
    18:00 +14°C° 0.4 mm 2 mps 742 mmHg 68%
    19:00 +13°C° 0.4 mm 2 mps 741 mmHg 76%
    20:00 +11°C° 2.5 mm 4 mps 740 mmHg 81%
    21:00 +10°C° 2.5 mm 5 mps 739 mmHg 85%
    22:00 +9°C° 2.5 mm 6 mps 738 mmHg 90%
    23:00 +9°C° 1.7 mm 6 mps 738 mmHg 91%
    Show more